Regional Weather Roundup
Issued by NWS

Home | Current Version | Previous Version | Graphics & Text | Print | Product List | Glossary On
Versions: 1 2 3 4 5 6 7 8 9 10 11 12 13 14 15 16 17 18 19 20 21 22 23 24 25 26 27 28 29 30 31 32 33 34 35 36 37 38 39 40 41 42 43 44 45 46 47 48 49 50
000
ASUS45 KCYS 241910
RWRWY

WYOMING REGIONAL WEATHER ROUNDUP
NATIONAL WEATHER SERVICE CHEYENNE WY
100 PM MDT FRI MAR 24 2017

NOTE:  "FAIR" INDICATES FEW OR NO CLOUDS BELOW 12,000 FEET
WITH NO SIGNIFICANT WEATHER AND/OR OBSTRUCTIONS TO VISIBILITY.

WYZ001-242000-
YELLOWSTONE NATIONAL PARK

CITY           SKY/WX    TMP DP  RH WIND       PRES   REMARKS
LK YELLOWSTONE   N/A     39  17  41 MISG      30.16F
W YELLOWSTONE  NOT AVBL

$$
WYZ002>013-054>058-071-098>099-242000-
NORTHERN WYOMING

CITY           SKY/WX    TMP DP  RH WIND       PRES   REMARKS
JACKSON        SUNNY     43  25  49 SW10      30.16F
CODY           FAIR      55  20  25 S7        30.07F
GREYBULL       FAIR      55  33  43 S12G24    30.09F
WORLAND        FAIR      57  35  43 S15G21    30.10F
SHERIDAN       FAIR      58  29  33 SE13      30.06F
BUFFALO        FAIR      56  31  38 SE12      30.10F
GILLETTE       FAIR      54  31  41 S7        30.12F
HULETT         FAIR      52  30  43 CALM      30.12F
NEWCASTLE      FAIR      54  18  24 N15       30.11F

$$
WYZ014>020-022>026-101>103-242000-
CENTRAL WYOMING

CITY           SKY/WX    TMP DP  RH WIND       PRES   REMARKS
BIG PINEY      FAIR      39  27  62 SE6       30.23F WCI  35
PINEDALE       MOCLDY    36  32  87 S7        30.24S WCI  30
DUBOIS         FAIR      45  25  45 N9        30.13F
LANDER         FAIR      52  30  43 N6        30.11F
RIVERTON       FAIR      51  33  50 E8        30.14F
CASPER         PTSUNNY   52  27  38 SW10      30.15F
DOUGLAS        PTSUNNY   54  27  35 VRB5      30.14F

$$
WYZ021-027>030-104>119-242000-
SOUTHERN WYOMING

CITY           SKY/WX    TMP DP  RH WIND       PRES   REMARKS
EVANSTON       FAIR      41  27  57 W7        30.21F
KEMMERER         N/A     39  27  60 CALM      30.22F
FORT BRIDGER   FAIR      47  28  48 CALM      30.24F
ROCK SPRINGS   FAIR      46  28  49 VRB6      30.22F
DIXON            N/A     48  26  41 W5        30.22F
RAWLINS        PTSUNNY   49  22  34 VRB7      30.19F
SARATOGA       MOCLDY    45  25  45 N5        30.21S
LARAMIE        PTSUNNY   43  25  49 NW14      30.16S
CHEYENNE       PTSUNNY   47  25  42 N23G36    30.12S
TORRINGTON     FAIR      56  24  29 N21G29    30.10S
PINE BLUFFS    CLOUDY    50  32  50 N22G32    30.12R

$$



USA.gov is the U.S. government's official web portal to all federal, state and local government web resources and services.